Temperature
16 15 15 15 15 15 15 15 15 15 15 15 15 15 15 15 15 15 15 15 15 15 15 15 15 15 15 15 15 15 15 15 15 15 15 15 15 15 15 15 15 15 15
15 15 15 15 15 15 15 15 15 15 15 15 15 15 15 15 15 15 15 15 15 15 15 15 15 15 15 15 15 15 15 15 15 15 15 15 15 15 15 15 15 15 15
15 15 15 15 15 15 15 15 15 15 15 15 14 14 15 15 15 15 15 15 15 15 15 15 15 14 14 15 14 14 14 14 14 14 14 14 14 14 14 14 14 14 14
15 15 15 15 14 14 14 14 14 14 14 14 14 14 14 14 14 14 14 14 14 14 14 14 14 14 14 14 14 14 14 14 14 14 14 14 14 14 14 14 14 14 14
15 15 15 14 14 14 14 14 14 14 14 14 14 14 14 14 14 14 14 14 14 14 14 14 14 14 14 14 14 14 14 14 14 14 14 14 14 14 14 14 14 14 14
15 15 14 14 14 14 14 14 14 14 14 14 14 14 13 13 13 13 13 14 14 14 14 14 14 14 14 14 13 13 13 13 13 13 13 13 13 13 13 13 13 13 13
14 14 14 14 14 14 14 14 14 14 14 14 14 13 13 13 13 13 13 13 13 13 13 13 13 13 13 13 13 13 13 13 13 13 13 13 13 13 13 13 13 13 13
14 14 14 14 14 14 14 14 14 14 13 13 13 13 13 13 13 13 13 13 13 13 13 13 13 13 13 13 13 13 13 12 12 12 12 12 12 13 12 12 12 12 13
14 14 14 14 14 14 13 13 13 13 13 13 13 13 13 12 12 12 12 12 12 12 12 13 13 13 13 13 12 12 12 12 12 12 12 12 12 12 12 12 12 12 12
14 14 14 14 14 13 13 13 13 13 13 13 13 13 13 13 13 12 12 12 12 12 12 12 12 12 12 12 12 12 12 12 12 12 12 12 12 12 12 11 11 11 11
14 14 14 14 13 13 13 13 13 13 13 13 13 13 13 13 13 12 12 12 12 12 12 12 12 12 12 12 12 12 12 12 12 12 12 11 11 11 11 11 11 11 11
14 14 14 13 13 13 13 13 13 13 13 13 13 13 13 13 13 13 12 12 12 12 12 12 12 12 12 12 12 12 12 12 12 12 12 11 11 11 11 11 11 11 11
14 13 13 13 13 13 13 13 13 13 13 13 13 13 13 13 13 13 12 12 12 12 12 12 12 12 12 12 12 12 12 12 12 11 11 11 11 11 11 11 11 11 11
14 13 13 13 13 13 13 13 13 13 13 13 13 12 12 13 13 13 12 12 12 11 11 12 12 12 11 11 11 11 11 11 11 11 11 11 11 11 11 11 11 11 11
14 13 13 13 13 13 13 13 13 13 13 12 12 12 12 12 12 12 12 12 12 11 11 11 11 12 11 11 11 11 11 11 11 11 11 11 11 11 11 11 11 11 11
13 13 13 13 13 13 13 13 13 12 12 12 12 12 12 12 12 12 12 12 12 12 11 11 11 11 11 11 11 11 11 11 11 11 11 11 11 11 11 11 11 11 11
13 13 13 13 13 13 13 13 12 12 12 12 12 12 12 12 12 12 12 12 12 12 12 11 11 11 11 11 11 11 11 11 11 11 11 11 11 11 11 11 11 11 11
13 13 13 13 13 13 12 12 12 12 12 12 12 12 12 11 11 11 12 12 12 12 11 11 11 11 11 11 11 11 11 10 10 10 11 10 10 10 10 10 10 10 11
13 12 12 12 12 12 12 12 12 12 12 12 12 12 11 11 11 11 11 11 11 11 11 11 11 11 11 11 11 11 10 10 10 10 10 10 10 10 10 10 10 10 10
12 12 12 12 12 12 12 12 11 11 11 11 11 11 11 11 11 11 11 11 11 11 11 11 11 11 10 10 10 10 10 10 10 10 10 10 10 10 10 10 10 10 10
12 12 12 12 12 11 11 11 11 11 11 11 11 11 11 11 11 11 11 11 11 11 11 11 10 10 10 10 10 10 10 10 10 10 10 10 9 9 9 9 9 9 9
11 11 11 11 11 11 11 11 11 11 11 11 11 11 11 11 10 10 10 10 10 10 10 10 10 10 10 10 10 10 10 10 9 9 9 9 9 9 9 9 9 9 9
11 11 11 11 11 11 11 10 10 10 10 10 10 10 10 10 10 10 10 10 10 10 10 10 10 10 10 10 10 10 9 9 9 9 9 9 9 9 9 9 9 8 8
11 11 11 10 10 10 10 10 10 10 10 10 10 10 10 10 10 10 10 10 10 10 10 10 10 10 10 10 9 9 9 9 9 9 8 8 8 8 8 8 8 8 8
10 10 10 10 10 10 10 10 10 10 10 10 10 9 9 9 9 9 9 9 9 9 9 9 9 9 9 9 9 9 9 8 8 9 8 8 8 8 8 8 8 8 7
10 10 10 10 10 10 9 9 9 9 9 9 9 9 9 9 9 9 8 9 9 9 9 9 9 9 9 9 8 8 8 8 8 8 8 8 8 7 7 7 7 7 7
Wind_Speed
3 3 3 4 5 6 6 5 5 6 6 7 7 7 6 7 7 7 7 9 9 9 9 8 8 8 9 9 9 8 9 8 8 7 7 7 6 6 6 6 5 5 5
4 3 3 3 4 5 6 5 5 5 5 5 5 6 6 6 7 7 7 8 9 9 9 9 9 9 8 8 9 9 8 8 9 8 8 8 7 7 6 6 5 5 5
6 5 3 3 3 6 7 6 6 5 5 5 5 5 5 5 6 6 7 7 7 8 9 9 9 9 9 8 8 8 8 9 9 9 9 8 8 7 7 6 6 5 5
8 5 4 3 4 6 5 4 4 4 4 4 4 3 4 4 5 6 6 6 6 6 7 9 9 9 9 9 9 8 7 8 8 8 9 8 8 8 7 7 6 6 6
8 6 3 3 5 4 3 3 4 3 3 3 3 4 3 3 3 5 5 5 5 6 6 6 8 8 8 8 8 8 8 8 8 8 8 8 8 7 7 7 7 6 6
7 7 4 4 5 4 3 3 4 3 2 2 4 4 3 3 3 3 3 3 4 5 5 6 6 6 7 7 7 7 7 7 7 8 8 8 7 7 7 6 6 6 6
6 6 4 3 3 3 3 3 3 3 3 2 4 4 4 4 4 2 2 2 2 4 5 6 6 6 5 6 6 6 6 7 7 7 7 7 7 6 6 6 6 6 5
5 6 4 3 3 3 3 3 3 2 1 2 2 2 2 4 4 3 2 1 1 2 3 5 5 6 5 5 5 5 5 6 6 6 6 6 6 6 5 5 5 5 5
4 5 5 4 3 3 3 2 2 3 1 1 1 3 2 1 2 3 2 2 1 1 1 3 4 4 4 4 3 4 4 4 4 4 5 5 5 5 5 4 4 4 5
3 4 4 4 3 3 3 2 2 2 3 1 1 1 2 3 2 1 3 2 2 1 1 2 2 2 3 3 3 3 3 3 3 3 3 4 4 3 4 4 4 4 4
1 2 3 3 3 2 3 2 2 2 2 2 1 0 1 1 2 2 1 3 3 1 1 1 2 2 3 3 3 2 3 3 3 3 3 3 3 3 3 3 3 3 3
0 1 2 3 3 3 3 3 2 3 2 2 2 1 2 2 2 2 2 1 1 2 1 1 1 2 3 3 3 3 3 3 3 2 2 2 2 2 2 2 2 2 2
1 2 2 3 3 3 3 3 2 2 2 2 2 2 2 2 2 3 3 2 1 2 2 1 1 2 3 4 4 4 4 4 3 3 3 2 1 1 1 1 1 1 1
3 3 3 3 3 3 3 3 2 2 2 2 2 2 2 1 2 3 3 3 1 1 1 3 2 2 3 4 5 4 4 5 5 4 3 3 2 1 0 1 1 1 1
3 3 3 3 3 3 3 3 2 2 2 2 2 2 2 2 2 2 3 3 4 2 2 3 2 2 3 4 5 5 5 5 5 5 4 4 3 2 1 1 1 2 2
3 3 3 3 3 3 3 3 2 2 2 2 2 2 1 1 1 1 2 2 3 3 3 3 3 2 2 3 4 5 5 6 6 5 5 5 4 3 2 2 2 2 3
3 3 3 3 3 3 2 2 2 2 2 2 1 2 2 2 2 1 1 2 2 3 3 3 2 1 1 2 2 3 4 4 5 6 6 5 5 5 4 3 3 2 2
2 2 2 3 3 3 3 3 3 3 3 2 2 2 3 2 2 2 2 2 2 3 3 3 2 1 2 2 2 2 2 3 5 5 5 5 5 5 4 4 3 3 3
2 2 2 2 2 2 3 4 4 3 3 3 3 3 3 3 3 2 3 3 2 2 2 3 2 1 2 1 1 1 1 1 3 4 5 5 5 5 5 4 4 4 3
3 3 2 2 2 2 3 3 3 3 3 3 3 3 3 4 4 4 3 4 3 2 2 2 2 2 2 1 1 1 1 1 2 2 3 4 5 5 5 5 4 4 4
2 2 2 2 2 2 2 2 3 3 3 3 2 3 3 3 4 3 3 3 4 3 2 2 2 2 2 2 2 2 2 1 2 2 1 2 2 3 4 5 5 5 5
1 1 2 2 2 2 2 2 2 3 3 3 3 2 3 2 3 3 3 3 5 5 4 3 3 4 4 4 3 3 2 1 2 2 2 3 2 2 3 5 5 5 4
1 1 2 2 2 3 3 2 2 2 3 3 3 3 2 2 2 2 3 3 4 5 6 5 4 5 5 5 4 3 3 3 4 3 3 2 2 3 3 5 6 6 5
2 2 2 2 2 3 3 3 3 2 2 3 3 4 3 3 3 2 2 1 2 3 4 4 5 5 4 4 5 5 5 3 1 1 3 2 2 2 2 3 5 5 5
2 2 2 2 2 3 3 4 3 2 2 2 3 2 2 3 3 2 2 2 2 3 3 4 5 5 4 4 4 2 3 3 2 2 2 2 2 1 1 1 3 4 4
3 2 2 2 2 3 3 2 2 2 2 2 2 2 3 3 4 3 3 3 3 3 2 2 2 2 2 3 5 4 5 4 2 2 3 3 2 1 1 2 1 1 2
Wind_Direction
95 84 70 63 59 60 61 63 64 65 65 73 78 81 79 78 76 76 80 88 90 91 92 93 94 91 91 93 91 89 87 86 96 100 103 102 98 103 104 103 106 103 102
105 96 82 67 61 65 67 72 72 70 65 72 71 77 82 82 78 78 75 79 85 90 91 90 90 89 87 87 86 82 81 80 88 89 90 92 94 98 101 102 105 101 99
109 103 94 75 71 74 74 72 67 67 66 66 62 69 78 80 81 79 79 77 77 82 90 90 88 87 85 86 87 84 83 81 80 80 84 88 89 89 91 94 96 94 94
109 105 104 91 87 84 79 75 64 64 59 60 60 56 67 74 76 79 80 80 78 76 79 86 87 87 84 83 83 81 83 84 82 78 79 81 84 84 83 84 89 91 92
112 109 107 99 91 83 71 78 67 77 72 63 70 60 51 64 73 82 75 79 84 84 82 81 82 82 82 81 79 78 77 80 79 78 76 77 78 77 79 79 80 84 90
116 111 107 95 92 83 66 68 74 62 74 71 78 62 39 39 58 73 85 83 84 90 92 87 81 73 74 78 80 81 83 82 80 78 76 76 75 76 79 81 81 81 85
117 112 111 106 99 96 96 95 88 66 49 59 71 44 22 29 42 44 63 78 75 85 98 97 92 82 69 70 81 84 87 85 80 76 74 74 75 78 81 83 81 82 83
125 124 124 122 114 103 90 87 90 83 47 56 96 82 32 5 7 17 19 69 77 91 96 97 99 95 86 73 77 90 89 85 81 74 72 74 74 76 82 84 84 87 90
137 135 135 132 126 129 130 129 116 114 116 0 76 122 129 201 318 342 3 24 46 91 108 107 108 108 111 100 87 98 104 94 84 74 70 72 75 74 80 86 91 93 91
138 141 147 143 144 142 147 159 135 127 127 123 343 50 148 158 148 330 334 347 2 93 155 143 135 135 133 129 127 126 123 110 100 90 80 75 78 76 80 85 90 93 88
122 146 154 145 154 155 161 159 140 137 141 156 166 144 82 74 111 147 265 323 347 334 250 185 160 157 160 149 152 146 141 129 121 106 101 89 77 67 76 86 90 88 81
143 166 158 149 159 163 172 176 169 162 166 156 152 147 153 156 175 159 186 235 283 309 320 255 189 184 180 175 180 179 169 158 148 132 118 104 85 53 44 75 87 80 67
185 205 181 172 169 173 172 163 161 177 176 164 168 174 179 186 171 159 157 188 243 299 328 313 255 207 195 191 196 194 189 183 176 168 155 141 117 63 18 31 54 46 29
200 196 183 179 177 166 162 160 160 187 184 187 191 185 181 195 170 168 167 159 148 322 324 282 295 237 216 204 207 201 198 198 192 190 182 167 157 137 111 359 359 331 313
193 183 171 173 169 164 165 164 168 190 180 197 205 197 195 208 189 181 168 166 165 204 264 265 265 261 227 214 214 201 208 208 205 207 206 200 195 194 201 269 294 311 309
187 172 174 175 179 180 174 163 172 191 176 210 201 190 210 218 204 188 182 177 174 183 225 251 240 255 222 218 225 210 218 226 218 215 216 212 211 217 223 234 253 279 294
173 166 183 190 182 187 183 169 188 178 179 209 204 189 220 209 192 200 178 164 173 170 201 259 253 259 209 223 217 214 223 225 222 220 218 215 216 219 220 223 237 251 271
182 175 176 186 183 183 187 183 195 188 184 203 220 201 221 207 203 206 184 192 197 188 182 222 254 247 233 228 210 211 219 224 224 228 222 217 216 217 217 220 228 245 263
177 172 173 180 194 196 197 198 196 199 202 214 215 209 219 197 212 215 196 195 201 197 183 194 235 234 247 231 198 250 238 255 228 225 217 219 219 218 223 230 237 249 259
179 186 190 191 197 203 203 202 197 200 212 223 220 213 215 204 209 209 206 204 191 186 187 191 222 240 245 238 172 214 262 290 258 228 221 221 222 223 227 239 249 255 259
182 192 188 197 201 199 209 205 200 203 211 227 237 229 224 214 215 207 203 199 187 190 191 199 219 232 238 209 212 208 211 236 268 223 209 228 215 217 227 239 247 251 251
185 167 185 199 205 218 215 197 188 198 208 214 228 241 241 217 230 228 226 206 189 186 195 199 215 222 235 224 207 198 189 190 259 231 185 249 202 221 231 234 243 244 248
182 183 212 210 215 235 236 220 213 192 204 219 224 228 241 247 221 220 244 243 227 213 200 194 206 224 225 221 198 198 202 208 231 217 173 240 235 235 236 238 239 241 244
196 205 216 217 221 250 257 234 221 202 213 231 230 222 220 240 231 205 208 232 250 248 231 220 215 226 233 216 204 203 205 201 247 227 170 215 245 245 252 232 236 238 241
207 216 212 210 214 256 270 249 215 188 206 239 248 235 222 224 239 217 180 209 259 277 270 248 236 233 233 221 191 164 168 170 228 244 197 186 220 246 270 268 250 239 233
204 211 227 226 218 239 268 258 232 180 203 244 267 253 238 238 246 229 197 198 227 258 274 292 287 269 242 231 212 197 190 188 197 229 214 179 191 165 269 285 277 259 233
Height
1531 1531 1530 1530 1530 1529 1529 1528 1528 1528 1528 1528 1528 1529 1529 1529 1529 1529 1530 1530 1530 1530 1530 1531 1531 1531 1531 1531 1531 1531 1531 1531 1532 1532 1533 1533 1534 1534 1534 1534 1535 1535 1535
1532 1532 1532 1532 1531 1531 1530 1530 1530 1529 1529 1529 1529 1530 1530 1530 1530 1531 1531 1531 1531 1531 1531 1531 1532 1532 1532 1532 1532 1532 1532 1532 1532 1532 1533 1533 1534 1534 1534 1534 1534 1535 1535
1533 1533 1533 1533 1532 1532 1532 1531 1531 1531 1531 1531 1531 1531 1531 1531 1531 1531 1532 1532 1532 1532 1532 1532 1532 1532 1532 1532 1532 1533 1533 1532 1532 1533 1533 1533 1534 1534 1534 1534 1534 1534 1535
1534 1534 1533 1533 1533 1533 1533 1532 1532 1532 1532 1532 1532 1532 1532 1532 1532 1532 1533 1533 1533 1533 1533 1533 1533 1533 1533 1533 1533 1533 1533 1533 1533 1533 1533 1533 1533 1533 1534 1534 1534 1534 1534
1534 1534 1534 1534 1534 1534 1533 1533 1533 1533 1533 1533 1533 1533 1533 1533 1533 1533 1533 1533 1533 1534 1534 1533 1533 1534 1534 1534 1534 1534 1534 1533 1533 1533 1533 1533 1533 1533 1533 1534 1534 1534 1535
1534 1534 1534 1534 1534 1534 1534 1534 1534 1534 1534 1534 1534 1534 1534 1534 1535 1534 1534 1534 1534 1534 1534 1534 1534 1534 1534 1534 1534 1534 1534 1534 1534 1534 1534 1533 1533 1533 1533 1533 1534 1534 1534
1534 1534 1534 1534 1534 1535 1535 1535 1534 1534 1534 1534 1534 1534 1535 1535 1535 1535 1535 1535 1535 1534 1534 1534 1534 1534 1534 1534 1534 1534 1534 1534 1534 1534 1534 1534 1533 1533 1533 1533 1533 1534 1534
1534 1534 1534 1534 1534 1535 1535 1535 1535 1535 1535 1535 1535 1534 1535 1537 1536 1536 1535 1535 1535 1535 1535 1535 1535 1534 1535 1535 1535 1535 1534 1534 1534 1534 1534 1533 1533 1533 1533 1533 1533 1533 1534
1533 1534 1534 1534 1534 1534 1534 1535 1535 1535 1535 1535 1535 1536 1535 1535 1536 1536 1535 1535 1535 1535 1535 1535 1535 1535 1535 1535 1535 1535 1534 1534 1534 1534 1534 1533 1533 1533 1532 1532 1533 1533 1533
1533 1533 1534 1534 1534 1534 1534 1534 1535 1535 1535 1535 1535 1535 1536 1535 1535 1535 1536 1535 1535 1535 1535 1535 1535 1535 1534 1534 1534 1534 1534 1534 1534 1534 1533 1533 1533 1533 1533 1533 1532 1533 1533
1532 1532 1533 1533 1533 1533 1533 1534 1534 1534 1534 1534 1534 1534 1534 1534 1534 1534 1534 1535 1535 1535 1535 1535 1535 1534 1534 1534 1534 1534 1534 1533 1533 1533 1533 1533 1533 1533 1533 1533 1532 1533 1533
1531 1531 1532 1532 1532 1532 1532 1533 1533 1533 1533 1533 1533 1533 1533 1533 1533 1533 1533 1533 1533 1534 1534 1534 1534 1534 1534 1533 1533 1533 1533 1532 1532 1532 1532 1532 1532 1532 1532 1532 1532 1532 1532
1529 1529 1530 1530 1530 1531 1531 1532 1532 1532 1532 1532 1532 1532 1532 1532 1532 1532 1532 1532 1532 1532 1532 1532 1533 1533 1533 1532 1532 1532 1532 1532 1532 1532 1532 1532 1532 1532 1531 1532 1532 1531 1531
1527 1528 1528 1529 1529 1529 1530 1530 1530 1530 1530 1530 1530 1530 1530 1531 1531 1531 1531 1531 1530 1531 1531 1531 1531 1531 1531 1531 1531 1530 1530 1530 1530 1530 1531 1531 1531 1531 1530 1530 1530 1530 1531
1525 1526 1526 1527 1527 1528 1528 1528 1528 1528 1528 1529 1529 1529 1529 1529 1529 1529 1529 1529 1529 1528 1529 1529 1530 1530 1530 1529 1529 1529 1529 1529 1529 1529 1529 1529 1529 1529 1529 1529 1529 1529 1529
1523 1524 1524 1525 1525 1525 1526 1526 1526 1526 1527 1527 1527 1527 1527 1527 1527 1527 1527 1527 1527 1527 1527 1527 1528 1528 1528 1528 1528 1528 1527 1527 1527 1527 1527 1527 1527 1527 1528 1528 1528 1527 1527
1521 1521 1522 1522 1522 1523 1523 1524 1524 1524 1524 1524 1524 1524 1525 1525 1525 1525 1525 1525 1525 1525 1524 1525 1526 1526 1526 1525 1526 1526 1526 1525 1525 1525 1526 1526 1526 1526 1526 1526 1526 1526 1526
1518 1519 1519 1519 1520 1520 1521 1521 1521 1521 1521 1521 1522 1522 1522 1522 1522 1522 1522 1523 1523 1523 1523 1522 1523 1523 1523 1523 1523 1523 1524 1524 1524 1524 1524 1524 1524 1524 1524 1524 1524 1524 1523
1516 1516 1516 1516 1517 1517 1518 1518 1518 1518 1519 1519 1519 1519 1519 1519 1519 1519 1519 1520 1520 1520 1520 1520 1519 1520 1520 1521 1521 1521 1521 1521 1521 1521 1522 1522 1522 1522 1522 1521 1521 1521 1521
1513 1513 1513 1514 1514 1515 1515 1515 1515 1515 1515 1516 1516 1516 1516 1516 1516 1516 1516 1517 1517 1517 1517 1517 1517 1517 1518 1518 1518 1518 1518 1518 1518 1518 1519 1519 1519 1519 1519 1519 1518 1518 1518
1510 1511 1511 1511 1511 1512 1512 1512 1512 1512 1512 1512 1512 1513 1513 1513 1513 1514 1514 1514 1514 1514 1514 1514 1514 1514 1514 1514 1515 1515 1515 1515 1515 1516 1516 1516 1516 1516 1516 1516 1515 1515 1515
1508 1508 1508 1508 1508 1509 1509 1509 1509 1509 1509 1509 1509 1509 1510 1510 1510 1510 1510 1511 1511 1511 1510 1510 1510 1510 1510 1511 1511 1512 1512 1512 1512 1513 1513 1513 1513 1513 1513 1513 1513 1512 1512
1504 1505 1505 1505 1505 1505 1506 1506 1506 1506 1505 1505 1505 1505 1506 1506 1506 1506 1506 1507 1507 1507 1508 1507 1507 1507 1507 1507 1508 1508 1508 1508 1508 1509 1509 1509 1509 1509 1510 1510 1510 1509 1509
1501 1501 1502 1502 1502 1502 1502 1502 1502 1502 1502 1502 1502 1502 1502 1502 1502 1502 1502 1502 1503 1503 1503 1503 1503 1503 1504 1504 1504 1504 1504 1504 1505 1505 1506 1505 1505 1506 1506 1506 1506 1506 1506
1498 1498 1498 1498 1498 1498 1498 1498 1498 1498 1498 1498 1498 1498 1498 1498 1498 1499 1499 1498 1498 1499 1499 1500 1500 1500 1500 1500 1500 1500 1500 1500 1500 1501 1502 1502 1502 1502 1503 1503 1503 1503 1503
1494 1494 1494 1494 1494 1494 1494 1494 1494 1494 1493 1493 1493 1494 1494 1494 1494 1495 1495 1495 1494 1494 1495 1495 1495 1495 1496 1496 1496 1497 1497 1497 1496 1497 1497 1498 1498 1499 1499 1499 1500 1500 1500